Flag for Slovenia Weather past 2 weeks in Kranj, Slovenia

39 °F


Feels Like: 39 °F
Forecast: 19 / 41 °F
Wind: No wind

Location: Ljubljana Airport / Brnik

Current Time: Nov 28, 2015 at 4:36:01 PM

Latest Report: Nov 28, 2015 at 4:00 PM

Visibility: 10 mi

Pressure: 29.89 "Hg

Humidity: 81%

Dew point: 34 °F

Location of KranjLocation

Historic Weather in Kranj — Graph


Kranj temperature yesterday

Maximum temperature yesterday: 45 °F (at 12:00 PM)
Minimum temperature yesterday: 23 °F (at 4:00 AM)
Average temperature yesterday: 32 °F

Past Weeks' High & Low Weather Summary

High64 °F (Nov 16, 2:00 PM)100% (Nov 13, 8:00 PM)30.33 "Hg (Nov 13, 8:00 PM)
Low23 °F (Nov 27, 4:00 AM)46% (Nov 16, 2:00 PM)29.30 "Hg (Nov 21, 5:00 AM)
Average39 °F88%29.97 "Hg
* Reported Nov 13 3:00 PM — Nov 28 3:30 PM, Kranj, Weather by CustomWeather, © 2015

Note: Actual official high and low records may vary slightly from our data, if they occured in-between our weather recording intervals... More about our weather records


Kranj weather history for previous 24 hours

Time TempWeatherWind HumidityBarometerVisibility
3:30 PM
Sat, Nov 28
39 °FSunny.No wind81%29.89 "Hg10 mi
3:00 PM43 °FScattered clouds.No wind61%29.86 "HgN/A
2:30 PM45 °FScattered clouds.No wind61%29.86 "HgN/A
2:00 PM43 °FScattered clouds.1 mph66%29.86 "HgN/A
1:30 PM41 °FScattered clouds.1 mph66%29.86 "HgN/A
1:00 PM43 °FScattered clouds.1 mph66%29.86 "HgN/A
12:30 PM43 °FPassing clouds.1 mph61%29.86 "HgN/A
12:00 PM43 °FScattered clouds.1 mph66%29.86 "HgN/A
11:30 AM41 °FScattered clouds.2 mph66%29.86 "HgN/A
11:00 AM39 °FScattered clouds.2 mph70%29.86 "HgN/A
10:30 AM39 °FPassing clouds.1 mph70%29.89 "HgN/A
10:00 AM39 °FPassing clouds.No wind75%29.89 "HgN/A
9:30 AM36 °FPassing clouds.1 mph93%29.89 "HgN/A
9:00 AM34 °FPartly sunny.2 mph93%29.86 "Hg5 mi
8:30 AM32 °FMore clouds than sun.1 mph100%29.86 "Hg5 mi
7:30 AM32 °FMore clouds than sun.2 mph93%29.86 "Hg5 mi
7:00 AM32 °FOvercast.No wind93%29.86 "Hg5 mi
6:30 AM32 °FOvercast.1 mph93%29.86 "Hg5 mi
6:00 AM32 °FOvercast.1 mph93%29.83 "Hg5 mi
5:30 AM32 °FOvercast.2 mph93%29.83 "Hg4 mi
5:00 AM32 °FMostly cloudy.No wind93%29.83 "Hg5 mi
4:30 AM32 °FOvercast.No wind93%29.83 "Hg5 mi
4:00 AM32 °FOvercast.No wind93%29.86 "Hg5 mi
3:30 AM32 °FOvercast.1 mph93%29.86 "Hg5 mi
3:00 AM32 °FOvercast.1 mph93%29.86 "Hg5 mi
2:30 AM32 °FOvercast.1 mph93%29.86 "HgN/A
12:30 AM34 °FOvercast.6 mph93%29.89 "Hg5 mi
12:00 AM34 °FPassing clouds.6 mph93%29.89 "HgN/A
11:30 PM
Fri, Nov 27
32 °FPassing clouds.3 mph93%29.89 "HgN/A
11:00 PM32 °FPartly cloudy.1 mph93%29.92 "HgN/A
10:30 PM32 °FPartly cloudy.No wind93%29.92 "HgN/A
10:00 PM34 °FPassing clouds.1 mph87%29.92 "HgN/A
9:30 PM34 °FPartly cloudy.2 mph87%29.92 "HgN/A
9:00 PM34 °FPartly cloudy.5 mph87%29.92 "HgN/A
8:30 PM32 °FPassing clouds.1 mph93%29.92 "HgN/A
8:00 PM32 °FPassing clouds.2 mph93%29.92 "HgN/A
7:30 PM32 °FPassing clouds.5 mph93%29.92 "HgN/A
7:00 PM32 °FPassing clouds.No wind87%29.92 "HgN/A
6:30 PM34 °FPassing clouds.No wind87%29.92 "HgN/A
6:00 PM34 °FPassing clouds.2 mph81%29.92 "HgN/A
5:30 PM34 °FPassing clouds.5 mph81%29.92 "HgN/A
5:00 PM36 °FPassing clouds.6 mph75%29.92 "HgN/A
4:30 PM37 °FPassing clouds.7 mph75%29.92 "HgN/A
4:00 PM37 °FPartly sunny.5 mph75%29.92 "HgN/A
Weather by CustomWeather, © 2015

See weather overviewHow to use our weather pages